Welcome to our new website - Welkom op onze vernieuwde website - Bienvenue sur notre nouveau site web - Willkommen auf unserer neuen Website
Check our progress frequently. Prüfen Sie unsere Fortschritte regelmäßig. Consultez notre progression fréquemment. Komt u straks nog eens terug
Het weer levert geen direct gevaar op.    Er zijn geen waarschuwingen afgegeven.

Regen radar Meer informatie rain snow radar


Bezoek ook deze websites:

Template documentation
and downloads

And another site


U vindt ons ook hier:

UK Metoffice

WeatherCloud

Weather Underground

AWEKAS



Select another period ( hide this area )

Eenheden Periode Custom range Directly to
Metrisch Engels Beide
Dagelijkse Wekelijkse Maandelijkse Jaarlijkse
use both date-selectors for a custom range
previous Dag
With this date

WeatherUnderground graphs for this period ( click here )


Dagelijkse Samenvatting Donderdag 22 oktober 2020
Tijd Temp. ( °C ) Dew pt. ( °C ) Wind ( km/h ) van Windvlaag ( km/h ) Luchtdruk ( hPa ) Humid.( % ) Rainrate ( cm ) Zonneschijn ( W/m2 )
Hoog17,9 14,0 23,0 ZW ( 1649/2444 ) 26,0 1010,8 94 - 513
Gemiddeld14,5 12,4 12,0 ZW #135/203 17,3 1009,1 88 - 220 #102/203
Laag11,3 10,2 3,0   8,0 1006,4 70 -  
Dagelijkse Tabular details for Donderdag 22 oktober 2020
Tijd Temp. ( °C ) Dew pt. ( °C ) Wind ( km/h ) van Windvlaag ( km/h ) Luchtdruk ( hPa ) Humid.( % ) Rainrate ( cm ) Zonneschijn ( W/m2 )
00:04 15,4 13,9 14,0 ZW 24,0 1006,4 91 - -
00:09 15,4 13,9 16,0 ZW 23,0 1006,4 91 - -
00:13 15,4 13,9 11,0 WZW 26,0 1006,4 91 - -
00:19 15,4 13,9 14,0 ZW 19,0 1006,4 91 - -
00:24 15,4 13,9 14,0 WZW 21,0 1006,4 91 - -
00:29 15,4 13,9 11,0 WZW 21,0 1006,4 91 - -
00:34 15,3 14,0 10,0 ZW 15,0 1006,4 92 - -
00:39 15,3 14,0 13,0 WZW 18,0 1006,8 92 - -
00:44 15,3 14,0 10,0 ZZW 13,0 1006,8 92 - -
00:49 15,2 13,9 8,0 ZW 11,0 1006,8 92 - -
00:54 15,2 13,9 8,0 ZW 13,0 1006,8 92 - -
00:59 15,1 13,8 8,0 ZW 13,0 1006,8 92 - -
01:04 15,0 13,7 8,0 ZW 11,0 1006,8 92 - -
01:09 14,9 13,6 8,0 ZW 16,0 1007,1 92 - -
01:14 14,9 13,6 14,0 ZZW 16,0 1007,1 92 - -
01:19 14,8 13,5 11,0 ZZW 16,0 1007,1 92 - -
01:24 14,8 13,5 13,0 ZW 13,0 1007,1 92 - -
01:29 14,7 13,4 14,0 ZW 16,0 1007,1 92 - -
01:34 14,7 13,4 13,0 WZW 16,0 1007,1 92 - -
01:39 14,7 13,2 8,0 WZW 16,0 1007,5 91 - -
01:44 14,7 13,2 8,0 ZW 16,0 1007,5 91 - -
01:49 14,7 13,2 18,0 WZW 18,0 1007,5 91 - -
01:54 14,7 13,2 11,0 ZW 15,0 1007,5 91 - -
01:59 14,6 13,1 11,0 ZW 15,0 1007,5 91 - -
02:04 14,6 13,1 10,0 ZW 15,0 1007,5 91 - -
02:09 14,6 13,1 11,0 ZW 15,0 1007,5 91 - -
02:14 14,6 13,1 6,0 ZW 13,0 1007,5 91 - -
02:19 14,6 13,1 11,0 ZW 13,0 1007,5 91 - -
02:24 14,6 13,1 11,0 ZW 11,0 1007,8 91 - -
02:29 14,6 13,1 8,0 ZZW 16,0 1007,8 91 - -
02:34 14,6 13,1 11,0 ZW 16,0 1007,8 91 - -
02:39 14,6 13,1 10,0 ZW 13,0 1007,8 91 - -
02:44 14,5 13,0 16,0 ZZW 18,0 1007,8 91 - -
02:49 14,4 12,9 13,0 ZZW 19,0 1007,8 91 - -
02:54 14,4 12,9 8,0 ZW 19,0 1008,1 91 - -
02:59 14,3 13,0 14,0 ZW 15,0 1007,8 92 - -
03:04 14,3 13,0 11,0 ZW 15,0 1007,8 92 - -
03:09 14,2 12,9 8,0 ZW 13,0 1007,8 92 - -
03:14 14,2 12,9 13,0 ZW 16,0 1007,8 92 - -
03:19 14,1 12,8 11,0 ZW 16,0 1007,8 92 - -
03:24 14,1 12,7 16,0 ZW 19,0 1007,8 91 - -
03:29 14,0 12,6 11,0 ZW 19,0 1007,8 91 - -
03:34 13,9 12,5 11,0 ZW 16,0 1007,8 91 - -
03:39 13,9 12,5 14,0 ZW 16,0 1007,8 91 - -
03:44 13,8 12,4 6,0 WZW 15,0 1007,8 91 - -
03:49 13,8 12,4 6,0 ZW 15,0 1007,8 91 - -
03:54 13,7 12,3 8,0 ZW 15,0 1007,8 91 - -
03:59 13,7 12,3 13,0 ZW 16,0 1008,1 91 - -
04:04 13,6 12,2 10,0 ZZW 18,0 1008,1 91 - -
04:09 13,6 12,2 13,0 ZZW 18,0 1008,1 91 - -
04:14 13,5 12,2 13,0 ZW 13,0 1008,1 92 - -
04:19 13,4 12,1 10,0 ZW 16,0 1008,5 92 - -
04:24 13,4 12,1 16,0 ZW 21,0 1008,5 92 - -
04:29 13,4 12,1 5,0 ZW 18,0 1008,5 92 - -
04:34 13,4 12,0 11,0 ZW 15,0 1008,5 92 - -
04:39 13,4 12,1 18,0 ZW 18,0 1008,5 92 - -
04:44 13,4 12,1 16,0 ZW 18,0 1008,5 92 - -
04:49 13,3 11,9 11,0 ZW 16,0 1008,5 91 - -
04:53 13,3 11,9 8,0 ZW 18,0 1008,5 91 - -
04:59 13,3 12,0 14,0 ZW 19,0 1008,5 92 - -
05:04 13,3 11,9 11,0 WZW 16,0 1008,5 91 - -
05:09 13,3 12,0 13,0 ZW 19,0 1008,5 92 - -
05:14 13,3 12,0 11,0 ZW 16,0 1008,5 92 - -
05:19 13,2 11,9 13,0 ZW 18,0 1008,5 92 - -
05:24 13,2 11,9 16,0 ZW 21,0 1008,5 92 - -
05:29 13,2 11,9 14,0 ZW 21,0 1008,5 92 - -
05:34 13,2 11,9 16,0 WZW 21,0 1008,5 92 - -
05:39 13,2 11,9 16,0 WZW 21,0 1008,5 92 - -
05:44 13,1 11,8 8,0 ZW 19,0 1008,5 92 - -
05:49 13,1 11,8 20,0 ZW 19,0 1008,5 92 - -
05:54 13,1 11,8 8,0 ZW 15,0 1008,5 92 - -
05:59 13,0 11,7 16,0 ZW 16,0 1008,5 92 - -
06:04 13,0 11,7 11,0 ZW 15,0 1008,5 92 - -
06:09 12,9 11,6 8,0 ZW 16,0 1008,5 92 - -
06:14 12,8 11,5 13,0 ZW 16,0 1008,5 92 - -
06:19 12,8 11,5 8,0 ZW 16,0 1008,5 92 - -
06:24 12,7 11,4 11,0 ZW 15,0 1008,5 92 - -
06:29 12,7 11,4 14,0 ZZW 15,0 1008,5 92 - -
06:34 12,7 11,4 13,0 WZW 19,0 1008,5 92 - -
06:39 12,7 11,4 14,0 ZW 21,0 1008,5 92 - -
06:44 12,7 11,4 14,0 ZW 24,0 1008,5 92 - -
06:49 12,7 11,4 10,0 ZW 18,0 1008,5 92 - -
06:53 12,6 11,3 10,0 ZW 18,0 1008,5 92 - -
06:59 12,6 11,3 13,0 ZW 19,0 1008,5 92 - -
07:04 12,5 11,2 8,0 ZZW 16,0 1008,5 92 - -
07:09 12,5 11,2 8,0 ZW 15,0 1008,5 92 - -
07:14 12,4 11,1 10,0 ZZW 13,0 1008,5 92 - -
07:19 12,3 11,0 6,0 ZW 10,0 1008,5 92 - -
07:24 12,2 10,9 5,0 ZW 8,0 1008,5 92 - -
07:29 12,2 10,9 5,0 ZZW 10,0 1008,5 92 - -
07:34 12,1 11,0 10,0 ZW 11,0 1008,5 93 - -
07:39 12,1 11,0 11,0 ZW 11,0 1008,8 93 - -
07:44 12,0 10,9 10,0 ZZW 10,0 1008,8 93 - -
07:49 12,0 10,9 10,0 ZW 10,0 1008,8 93 - -
07:54 11,9 10,8 6,0 ZZW 11,0 1008,8 93 - -
07:59 11,9 10,8 6,0 ZZW 11,0 1008,8 93 - -
08:04 11,7 10,6 8,0 ZW 10,0 1008,8 93 - -
08:09 11,7 10,6 6,0 ZZW 11,0 1008,8 93 - -
08:14 11,8 10,7 8,0 ZZW 8,0 1009,1 93 - -
08:19 11,7 10,6 8,0 ZZW 8,0 1009,1 93 - -
08:24 11,7 10,6 5,0 ZW 8,0 1008,8 93 - -
08:29 11,6 10,5 8,0 ZZW 13,0 1009,1 93 - 7
08:34 11,6 10,5 3,0 ZZW 10,0 1009,1 93 - 7
08:39 11,4 10,3 15,0 Zuiden 15,0 1009,1 93 - 11
08:43 11,3 10,2 5,0 ZZW 15,0 1009,1 93 - 14
08:49 11,3 10,2 10,0 ZZW 16,0 1009,1 93 - 19
08:54 11,5 10,4 10,0 ZW 15,0 1009,5 93 - 19
08:59 11,6 10,7 8,0 ZW 18,0 1009,8 94 - 44
09:04 11,8 10,7 13,0 ZW 16,0 1009,8 94 - 63
09:09 12,0 10,9 10,0 ZZW 23,0 1009,5 93 - 62
09:14 12,1 10,9 13,0 ZW 16,0 1009,8 93 - 26
09:19 12,2 10,9 14,0 ZZW 16,0 1009,8 92 - 60
09:24 12,3 10,9 11,0 ZW 18,0 1009,8 91 - 88
09:29 12,3 10,9 8,0 ZW 13,0 1009,8 91 - 102
09:34 12,4 11,0 11,0 ZW 13,0 1009,8 91 - 121
09:39 12,6 11,2 11,0 ZZW 15,0 1009,8 91 - 130
09:44 12,7 11,3 16,0 ZW 18,0 1010,2 91 - 188
09:49 12,8 11,4 13,0 ZZW 19,0 1010,2 91 - 127
09:54 12,9 11,4 14,0 ZW 19,0 1010,2 91 - 142
09:59 13,1 11,5 14,0 ZZW 19,0 1010,2 90 - 243
10:04 13,2 11,6 16,0 WZW 21,0 1010,2 90 - 144
10:09 13,3 11,7 13,0 ZW 19,0 1010,2 90 - 130
10:14 13,3 11,5 18,0 ZW 19,0 1010,5 89 - 139
10:19 13,4 11,6 10,0 ZZW 19,0 1010,5 89 - 178
10:24 13,6 12,0 16,0 ZW 19,0 1010,5 90 - 223
10:28 13,7 11,9 13,0 ZW 18,0 1010,5 89 - 221
10:34 13,8 12,0 16,0 ZW 21,0 1010,5 89 - 236
10:39 13,9 12,1 8,0 ZZW 21,0 1010,5 89 - 178
10:44 14,0 12,1 20,0 ZW 21,0 1010,8 89 - 220
10:49 14,2 12,2 13,0 ZZW 19,0 1010,8 88 - 223
10:54 14,2 12,2 8,0 ZZW 15,0 1010,5 88 - 162
10:59 14,3 12,3 13,0 WZW 18,0 1010,5 88 - 171
11:04 14,4 12,4 20,0 ZW 24,0 1010,5 88 - 309
11:09 14,6 12,5 11,0 ZW 24,0 1010,5 87 - 513
11:14 14,8 12,7 18,0 ZZW 23,0 1010,5 87 - 272
11:19 14,9 12,6 11,0 ZW 21,0 1010,5 86 - 345
11:24 15,1 12,7 16,0 ZW 23,0 1010,5 86 - 390
11:29 15,3 12,8 10,0 WZW 23,0 1010,5 85 - 390
11:34 15,4 12,9 8,0 ZZW 16,0 1010,5 85 - 149
11:39 15,3 12,6 23,0 ZW 23,0 1010,8 84 - 151
11:44 15,3 12,5 20,0 ZW 26,0 1010,5 84 - 297
11:49 15,3 12,6 16,0 WZW 19,0 1010,5 84 - 325
11:54 15,4 12,7 14,0 ZW 21,0 1010,5 84 - 229
11:59 15,5 12,7 14,0 ZZW 23,0 1010,5 84 - 200
12:04 15,5 12,4 14,0 ZW 19,0 1010,5 82 - 213
12:09 15,7 12,8 18,0 ZW 19,0 1010,5 83 - 292
12:13 15,7 12,6 11,0 ZW 24,0 1010,5 82 - 137
12:19 15,6 12,5 16,0 ZW 19,0 1010,5 82 - 167
12:24 15,6 12,5 11,0 WZW 18,0 1010,5 82 - 207
12:29 15,6 12,5 18,0 ZW 21,0 1010,5 82 - 207
12:34 15,6 12,5 14,0 ZW 16,0 1010,8 82 - 202
12:39 15,7 12,8 11,0 ZW 16,0 1010,8 83 - 163
12:44 15,7 12,8 11,0 ZW 23,0 1010,8 83 - 204
12:49 15,7 12,8 14,0 ZW 23,0 1010,8 83 - 229
12:54 15,8 12,9 16,0 ZZW 18,0 1010,8 83 - 244
12:59 15,8 12,7 11,0 ZW 16,0 1010,8 82 - 141
13:04 15,8 12,7 14,0 ZW 19,0 1010,8 82 - 176
13:09 15,8 12,7 13,0 ZZW 19,0 1010,8 82 - 199
13:14 15,9 12,8 13,0 ZW 16,0 1010,8 82 - 193
13:19 15,9 12,8 13,0 ZW 21,0 1010,8 82 - 308
13:24 16,2 12,8 18,0 ZW 21,0 1010,5 81 - 274
13:29 16,3 12,8 13,0 ZW 19,0 1010,5 80 - 322
13:34 16,3 12,8 16,0 ZW 23,0 1010,5 80 - 315
13:39 16,4 13,1 5,0 ZW 15,0 1010,5 81 - 283
13:44 16,4 13,1 8,0 ZW 18,0 1010,5 81 - 244
13:49 16,4 13,1 11,0 ZW 18,0 1010,5 81 - 167
13:54 16,4 13,1 13,0 ZZW 18,0 1010,5 81 - 213
13:58 16,4 13,1 6,0 ZW 18,0 1010,5 81 - 209
14:04 16,5 13,2 20,0 ZW 21,0 1010,5 81 - 162
14:09 16,4 13,3 14,0 ZZW 18,0 1010,5 82 - 221
14:14 16,4 13,3 16,0 ZW 18,0 1010,5 82 - 461
14:19 16,5 13,6 13,0 ZW 18,0 1010,5 83 - 461
14:24 16,6 13,5 10,0 ZW 15,0 1010,5 82 - 227
14:29 16,6 13,5 11,0 ZZW 16,0 1010,5 82 - 207
14:34 16,4 13,3 11,0 ZW 16,0 1010,2 82 - 216
14:38 16,4 13,3 8,0 ZZW 16,0 1010,2 82 - 172
14:44 16,5 13,6 8,0 ZW 13,0 1010,2 83 - 302
14:49 16,6 13,7 16,0 WZW 16,0 1010,2 83 - 329
14:54 16,7 13,6 14,0 ZW 18,0 1010,2 82 - 202
14:59 16,7 13,4 11,0 ZW 16,0 1010,2 81 - 197
15:04 16,9 13,8 5,0 ZW 13,0 1010,2 82 - 462
15:09 17,2 13,9 14,0 ZW 18,0 1010,2 82 - 364
15:14 17,2 13,5 11,0 ZW 15,0 1010,2 79 - 130
15:19 17,2 13,3 13,0 WZW 18,0 1010,2 78 - 427
15:24 17,2 13,4 14,0 ZW 21,0 1010,2 79 - 185
15:29 17,1 13,4 16,0 ZW 24,0 1010,2 79 - 179
15:34 17,1 13,1 13,0 ZW 19,0 1009,8 78 - 434
15:39 17,4 13,3 14,0 ZW 18,0 1009,8 77 - 410
15:44 17,5 13,3 13,0 ZW 16,0 1009,8 77 - 390
15:49 17,5 13,2 20,0 ZW 19,0 1010,2 76 - 253
15:54 17,4 12,7 20,0 ZW 24,0 1010,2 74 - 341
15:59 17,4 12,9 18,0 WZW 21,0 1010,2 75 - 330
16:04 17,6 13,1 11,0 WZW 21,0 1010,2 75 - 304
16:09 17,7 13,1 11,0 WZW 18,0 1010,2 75 - 304
16:14 17,8 13,1 16,0 WZW 16,0 1010,2 74 - 288
16:19 17,9 13,0 8,0 WZW 16,0 1010,2 73 - 271
16:24 17,8 12,9 20,0 ZW 24,0 1010,2 73 - 262
16:29 17,7 12,2 11,0 WZW 26,0 1010,2 70 - 250
16:33 17,7 12,4 21,0 WZW 21,0 1010,2 71 - 248
16:39 17,7 12,2 10,0 ZW 23,0 1010,2 70 - 237
16:44 17,7 12,4 21,0 WZW 21,0 1010,2 71 - 227
16:49 17,7 12,4 11,0 ZW 19,0 1010,2 71 - 213
16:54 17,7 12,6 14,0 ZW 19,0 1010,2 72 - 202
Dagelijkse Samenvatting Donderdag 22 oktober 2020
Tijd Temp. ( °C ) Dew pt. ( °C ) Wind ( km/h ) van Windvlaag ( km/h ) Luchtdruk ( hPa ) Humid.( % ) Rainrate ( cm ) Zonneschijn ( W/m2 )
Hoog17,9 14,0 23,0 ZW ( 1649/2444 ) 26,0 1010,8 94 - 513
Gemiddeld14,5 12,4 12,0 ZW #135/203 17,3 1009,1 88 - 220 #102/203
Laag11,3 10,2 3,0   8,0 1006,4 70 -  
Dagelijkse Tabular details for Donderdag 22 oktober 2020
Tijd Temp. ( °C ) Dew pt. ( °C ) Wind ( km/h ) van Windvlaag ( km/h ) Luchtdruk ( hPa ) Humid.( % ) Rainrate ( cm ) Zonneschijn ( W/m2 )
00:04 15,4 13,9 14,0 ZW 24,0 1006,4 91 - -
00:09 15,4 13,9 16,0 ZW 23,0 1006,4 91 - -
00:13 15,4 13,9 11,0 WZW 26,0 1006,4 91 - -
00:19 15,4 13,9 14,0 ZW 19,0 1006,4 91 - -
00:24 15,4 13,9 14,0 WZW 21,0 1006,4 91 - -
00:29 15,4 13,9 11,0 WZW 21,0 1006,4 91 - -
00:34 15,3 14,0 10,0 ZW 15,0 1006,4 92 - -
00:39 15,3 14,0 13,0 WZW 18,0 1006,8 92 - -
00:44 15,3 14,0 10,0 ZZW 13,0 1006,8 92 - -
00:49 15,2 13,9 8,0 ZW 11,0 1006,8 92 - -
00:54 15,2 13,9 8,0 ZW 13,0 1006,8 92 - -
00:59 15,1 13,8 8,0 ZW 13,0 1006,8 92 - -
01:04 15,0 13,7 8,0 ZW 11,0 1006,8 92 - -
01:09 14,9 13,6 8,0 ZW 16,0 1007,1 92 - -
01:14 14,9 13,6 14,0 ZZW 16,0 1007,1 92 - -
01:19 14,8 13,5 11,0 ZZW 16,0 1007,1 92 - -
01:24 14,8 13,5 13,0 ZW 13,0 1007,1 92 - -
01:29 14,7 13,4 14,0 ZW 16,0 1007,1 92 - -
01:34 14,7 13,4 13,0 WZW 16,0 1007,1 92 - -
01:39 14,7 13,2 8,0 WZW 16,0 1007,5 91 - -
01:44 14,7 13,2 8,0 ZW 16,0 1007,5 91 - -
01:49 14,7 13,2 18,0 WZW 18,0 1007,5 91 - -
01:54 14,7 13,2 11,0 ZW 15,0 1007,5 91 - -
01:59 14,6 13,1 11,0 ZW 15,0 1007,5 91 - -
02:04 14,6 13,1 10,0 ZW 15,0 1007,5 91 - -
02:09 14,6 13,1 11,0 ZW 15,0 1007,5 91 - -
02:14 14,6 13,1 6,0 ZW 13,0 1007,5 91 - -
02:19 14,6 13,1 11,0 ZW 13,0 1007,5 91 - -
02:24 14,6 13,1 11,0 ZW 11,0 1007,8 91 - -
02:29 14,6 13,1 8,0 ZZW 16,0 1007,8 91 - -
02:34 14,6 13,1 11,0 ZW 16,0 1007,8 91 - -
02:39 14,6 13,1 10,0 ZW 13,0 1007,8 91 - -
02:44 14,5 13,0 16,0 ZZW 18,0 1007,8 91 - -
02:49 14,4 12,9 13,0 ZZW 19,0 1007,8 91 - -
02:54 14,4 12,9 8,0 ZW 19,0 1008,1 91 - -
02:59 14,3 13,0 14,0 ZW 15,0 1007,8 92 - -
03:04 14,3 13,0 11,0 ZW 15,0 1007,8 92 - -
03:09 14,2 12,9 8,0 ZW 13,0 1007,8 92 - -
03:14 14,2 12,9 13,0 ZW 16,0 1007,8 92 - -
03:19 14,1 12,8 11,0 ZW 16,0 1007,8 92 - -
03:24 14,1 12,7 16,0 ZW 19,0 1007,8 91 - -
03:29 14,0 12,6 11,0 ZW 19,0 1007,8 91 - -
03:34 13,9 12,5 11,0 ZW 16,0 1007,8 91 - -
03:39 13,9 12,5 14,0 ZW 16,0 1007,8 91 - -
03:44 13,8 12,4 6,0 WZW 15,0 1007,8 91 - -
03:49 13,8 12,4 6,0 ZW 15,0 1007,8 91 - -
03:54 13,7 12,3 8,0 ZW 15,0 1007,8 91 - -
03:59 13,7 12,3 13,0 ZW 16,0 1008,1 91 - -
04:04 13,6 12,2 10,0 ZZW 18,0 1008,1 91 - -
04:09 13,6 12,2 13,0 ZZW 18,0 1008,1 91 - -
04:14 13,5 12,2 13,0 ZW 13,0 1008,1 92 - -
04:19 13,4 12,1 10,0 ZW 16,0 1008,5 92 - -
04:24 13,4 12,1 16,0 ZW 21,0 1008,5 92 - -
04:29 13,4 12,1 5,0 ZW 18,0 1008,5 92 - -
04:34 13,4 12,0 11,0 ZW 15,0 1008,5 92 - -
04:39 13,4 12,1 18,0 ZW 18,0 1008,5 92 - -
04:44 13,4 12,1 16,0 ZW 18,0 1008,5 92 - -
04:49 13,3 11,9 11,0 ZW 16,0 1008,5 91 - -
04:53 13,3 11,9 8,0 ZW 18,0 1008,5 91 - -
04:59 13,3 12,0 14,0 ZW 19,0 1008,5 92 - -
05:04 13,3 11,9 11,0 WZW 16,0 1008,5 91 - -
05:09 13,3 12,0 13,0 ZW 19,0 1008,5 92 - -
05:14 13,3 12,0 11,0 ZW 16,0 1008,5 92 - -
05:19 13,2 11,9 13,0 ZW 18,0 1008,5 92 - -
05:24 13,2 11,9 16,0 ZW 21,0 1008,5 92 - -
05:29 13,2 11,9 14,0 ZW 21,0 1008,5 92 - -
05:34 13,2 11,9 16,0 WZW 21,0 1008,5 92 - -
05:39 13,2 11,9 16,0 WZW 21,0 1008,5 92 - -
05:44 13,1 11,8 8,0 ZW 19,0 1008,5 92 - -
05:49 13,1 11,8 20,0 ZW 19,0 1008,5 92 - -
05:54 13,1 11,8 8,0 ZW 15,0 1008,5 92 - -
05:59 13,0 11,7 16,0 ZW 16,0 1008,5 92 - -
06:04 13,0 11,7 11,0 ZW 15,0 1008,5 92 - -
06:09 12,9 11,6 8,0 ZW 16,0 1008,5 92 - -
06:14 12,8 11,5 13,0 ZW 16,0 1008,5 92 - -
06:19 12,8 11,5 8,0 ZW 16,0 1008,5 92 - -
06:24 12,7 11,4 11,0 ZW 15,0 1008,5 92 - -
06:29 12,7 11,4 14,0 ZZW 15,0 1008,5 92 - -
06:34 12,7 11,4 13,0 WZW 19,0 1008,5 92 - -
06:39 12,7 11,4 14,0 ZW 21,0 1008,5 92 - -
06:44 12,7 11,4 14,0 ZW 24,0 1008,5 92 - -
06:49 12,7 11,4 10,0 ZW 18,0 1008,5 92 - -
06:53 12,6 11,3 10,0 ZW 18,0 1008,5 92 - -
06:59 12,6 11,3 13,0 ZW 19,0 1008,5 92 - -
07:04 12,5 11,2 8,0 ZZW 16,0 1008,5 92 - -
07:09 12,5 11,2 8,0 ZW 15,0 1008,5 92 - -
07:14 12,4 11,1 10,0 ZZW 13,0 1008,5 92 - -
07:19 12,3 11,0 6,0 ZW 10,0 1008,5 92 - -
07:24 12,2 10,9 5,0 ZW 8,0 1008,5 92 - -
07:29 12,2 10,9 5,0 ZZW 10,0 1008,5 92 - -
07:34 12,1 11,0 10,0 ZW 11,0 1008,5 93 - -
07:39 12,1 11,0 11,0 ZW 11,0 1008,8 93 - -
07:44 12,0 10,9 10,0 ZZW 10,0 1008,8 93 - -
07:49 12,0 10,9 10,0 ZW 10,0 1008,8 93 - -
07:54 11,9 10,8 6,0 ZZW 11,0 1008,8 93 - -
07:59 11,9 10,8 6,0 ZZW 11,0 1008,8 93 - -
08:04 11,7 10,6 8,0 ZW 10,0 1008,8 93 - -
08:09 11,7 10,6 6,0 ZZW 11,0 1008,8 93 - -
08:14 11,8 10,7 8,0 ZZW 8,0 1009,1 93 - -
08:19 11,7 10,6 8,0 ZZW 8,0 1009,1 93 - -
08:24 11,7 10,6 5,0 ZW 8,0 1008,8 93 - -
08:29 11,6 10,5 8,0 ZZW 13,0 1009,1 93 - 7
08:34 11,6 10,5 3,0 ZZW 10,0 1009,1 93 - 7
08:39 11,4 10,3 15,0 Zuiden 15,0 1009,1 93 - 11
08:43 11,3 10,2 5,0 ZZW 15,0 1009,1 93 - 14
08:49 11,3 10,2 10,0 ZZW 16,0 1009,1 93 - 19
08:54 11,5 10,4 10,0 ZW 15,0 1009,5 93 - 19
08:59 11,6 10,7 8,0 ZW 18,0 1009,8 94 - 44
09:04 11,8 10,7 13,0 ZW 16,0 1009,8 94 - 63
09:09 12,0 10,9 10,0 ZZW 23,0 1009,5 93 - 62
09:14 12,1 10,9 13,0 ZW 16,0 1009,8 93 - 26
09:19 12,2 10,9 14,0 ZZW 16,0 1009,8 92 - 60
09:24 12,3 10,9 11,0 ZW 18,0 1009,8 91 - 88
09:29 12,3 10,9 8,0 ZW 13,0 1009,8 91 - 102
09:34 12,4 11,0 11,0 ZW 13,0 1009,8 91 - 121
09:39 12,6 11,2 11,0 ZZW 15,0 1009,8 91 - 130
09:44 12,7 11,3 16,0 ZW 18,0 1010,2 91 - 188
09:49 12,8 11,4 13,0 ZZW 19,0 1010,2 91 - 127
09:54 12,9 11,4 14,0 ZW 19,0 1010,2 91 - 142
09:59 13,1 11,5 14,0 ZZW 19,0 1010,2 90 - 243
10:04 13,2 11,6 16,0 WZW 21,0 1010,2 90 - 144
10:09 13,3 11,7 13,0 ZW 19,0 1010,2 90 - 130
10:14 13,3 11,5 18,0 ZW 19,0 1010,5 89 - 139
10:19 13,4 11,6 10,0 ZZW 19,0 1010,5 89 - 178
10:24 13,6 12,0 16,0 ZW 19,0 1010,5 90 - 223
10:28 13,7 11,9 13,0 ZW 18,0 1010,5 89 - 221
10:34 13,8 12,0 16,0 ZW 21,0 1010,5 89 - 236
10:39 13,9 12,1 8,0 ZZW 21,0 1010,5 89 - 178
10:44 14,0 12,1 20,0 ZW 21,0 1010,8 89 - 220
10:49 14,2 12,2 13,0 ZZW 19,0 1010,8 88 - 223
10:54 14,2 12,2 8,0 ZZW 15,0 1010,5 88 - 162
10:59 14,3 12,3 13,0 WZW 18,0 1010,5 88 - 171
11:04 14,4 12,4 20,0 ZW 24,0 1010,5 88 - 309
11:09 14,6 12,5 11,0 ZW 24,0 1010,5 87 - 513
11:14 14,8 12,7 18,0 ZZW 23,0 1010,5 87 - 272
11:19 14,9 12,6 11,0 ZW 21,0 1010,5 86 - 345
11:24 15,1 12,7 16,0 ZW 23,0 1010,5 86 - 390
11:29 15,3 12,8 10,0 WZW 23,0 1010,5 85 - 390
11:34 15,4 12,9 8,0 ZZW 16,0 1010,5 85 - 149
11:39 15,3 12,6 23,0 ZW 23,0 1010,8 84 - 151
11:44 15,3 12,5 20,0 ZW 26,0 1010,5 84 - 297
11:49 15,3 12,6 16,0 WZW 19,0 1010,5 84 - 325
11:54 15,4 12,7 14,0 ZW 21,0 1010,5 84 - 229
11:59 15,5 12,7 14,0 ZZW 23,0 1010,5 84 - 200
12:04 15,5 12,4 14,0 ZW 19,0 1010,5 82 - 213
12:09 15,7 12,8 18,0 ZW 19,0 1010,5 83 - 292
12:13 15,7 12,6 11,0 ZW 24,0 1010,5 82 - 137
12:19 15,6 12,5 16,0 ZW 19,0 1010,5 82 - 167
12:24 15,6 12,5 11,0 WZW 18,0 1010,5 82 - 207
12:29 15,6 12,5 18,0 ZW 21,0 1010,5 82 - 207
12:34 15,6 12,5 14,0 ZW 16,0 1010,8 82 - 202
12:39 15,7 12,8 11,0 ZW 16,0 1010,8 83 - 163
12:44 15,7 12,8 11,0 ZW 23,0 1010,8 83 - 204
12:49 15,7 12,8 14,0 ZW 23,0 1010,8 83 - 229
12:54 15,8 12,9 16,0 ZZW 18,0 1010,8 83 - 244
12:59 15,8 12,7 11,0 ZW 16,0 1010,8 82 - 141
13:04 15,8 12,7 14,0 ZW 19,0 1010,8 82 - 176
13:09 15,8 12,7 13,0 ZZW 19,0 1010,8 82 - 199
13:14 15,9 12,8 13,0 ZW 16,0 1010,8 82 - 193
13:19 15,9 12,8 13,0 ZW 21,0 1010,8 82 - 308
13:24 16,2 12,8 18,0 ZW 21,0 1010,5 81 - 274
13:29 16,3 12,8 13,0 ZW 19,0 1010,5 80 - 322
13:34 16,3 12,8 16,0 ZW 23,0 1010,5 80 - 315
13:39 16,4 13,1 5,0 ZW 15,0 1010,5 81 - 283
13:44 16,4 13,1 8,0 ZW 18,0 1010,5 81 - 244
13:49 16,4 13,1 11,0 ZW 18,0 1010,5 81 - 167
13:54 16,4 13,1 13,0 ZZW 18,0 1010,5 81 - 213
13:58 16,4 13,1 6,0 ZW 18,0 1010,5 81 - 209
14:04 16,5 13,2 20,0 ZW 21,0 1010,5 81 - 162
14:09 16,4 13,3 14,0 ZZW 18,0 1010,5 82 - 221
14:14 16,4 13,3 16,0 ZW 18,0 1010,5 82 - 461
14:19 16,5 13,6 13,0 ZW 18,0 1010,5 83 - 461
14:24 16,6 13,5 10,0 ZW 15,0 1010,5 82 - 227
14:29 16,6 13,5 11,0 ZZW 16,0 1010,5 82 - 207
14:34 16,4 13,3 11,0 ZW 16,0 1010,2 82 - 216
14:38 16,4 13,3 8,0 ZZW 16,0 1010,2 82 - 172
14:44 16,5 13,6 8,0 ZW 13,0 1010,2 83 - 302
14:49 16,6 13,7 16,0 WZW 16,0 1010,2 83 - 329
14:54 16,7 13,6 14,0 ZW 18,0 1010,2 82 - 202
14:59 16,7 13,4 11,0 ZW 16,0 1010,2 81 - 197
15:04 16,9 13,8 5,0 ZW 13,0 1010,2 82 - 462
15:09 17,2 13,9 14,0 ZW 18,0 1010,2 82 - 364
15:14 17,2 13,5 11,0 ZW 15,0 1010,2 79 - 130
15:19 17,2 13,3 13,0 WZW 18,0 1010,2 78 - 427
15:24 17,2 13,4 14,0 ZW 21,0 1010,2 79 - 185
15:29 17,1 13,4 16,0 ZW 24,0 1010,2 79 - 179
15:34 17,1 13,1 13,0 ZW 19,0 1009,8 78 - 434
15:39 17,4 13,3 14,0 ZW 18,0 1009,8 77 - 410
15:44 17,5 13,3 13,0 ZW 16,0 1009,8 77 - 390
15:49 17,5 13,2 20,0 ZW 19,0 1010,2 76 - 253
15:54 17,4 12,7 20,0 ZW 24,0 1010,2 74 - 341
15:59 17,4 12,9 18,0 WZW 21,0 1010,2 75 - 330
16:04 17,6 13,1 11,0 WZW 21,0 1010,2 75 - 304
16:09 17,7 13,1 11,0 WZW 18,0 1010,2 75 - 304
16:14 17,8 13,1 16,0 WZW 16,0 1010,2 74 - 288
16:19 17,9 13,0 8,0 WZW 16,0 1010,2 73 - 271
16:24 17,8 12,9 20,0 ZW 24,0 1010,2 73 - 262
16:29 17,7 12,2 11,0 WZW 26,0 1010,2 70 - 250
16:33 17,7 12,4 21,0 WZW 21,0 1010,2 71 - 248
16:39 17,7 12,2 10,0 ZW 23,0 1010,2 70 - 237
16:44 17,7 12,4 21,0 WZW 21,0 1010,2 71 - 227
16:49 17,7 12,4 11,0 ZW 19,0 1010,2 71 - 213
16:54 17,7 12,6 14,0 ZW 19,0 1010,2 72 - 202

Download your copy of this data-set  here

Our weather-data as stored at Weather Underground. Script ontwikkeld door Jim McMurry. Aangepast voor de template door Leuven-Template.eu

Apparatuur in gebruik:

Weerstation
Davis Vantage Pro2

Weerprogramma
Meteobridge

Weercomputer
TP-Link TL-MR3020

Webleverancier
One.com

Davis Vantage Pro2

Meteobridge

TP-Link TL-MR3020

One.com